Retour au catalogue

STARLINK-2185

ActifCommunicationsVLEO
NORAD 47767·PAYLOAD·🇺🇸 United States

Lancé Mar 4, 2021 depuis Cape Canaveral Space Force Station

Loading…

Prochains Passages (prochaines 24 heures)

TLE

FraisSource: CelesTrak SupGP

Époque: Sep 15, 2026, 01:19 UTC

1 47767C 21017AX  26258.05534722  .00463090  00000+0  99560-3 0  2584
2 47767  53.1440   2.7788 0010285 333.2584 168.5687 15.97439466    12

Suivez STARLINK-2185 en temps réel avec AllMySat

Download on the App Store